User: anonymous   Login
Location: Unspecified
(49.2170°N, 0.0000°E)
Time: 17:00:51
(UTC+00:00)
Language:

A-11 Canister half - Orbit

View from above orbital plane
View from above orbital plane
View from above satellite
View from above satellite

Ground track
Ground track

The orbit data is extracted from the following two-line orbital elements,

1 00051U 60009C   21129.20584291 -.00000042  00000-0  42356-3 0  9997
2 00051  47.2140  59.6237 0107157  50.4800 310.5403 12.18275129703808
Epoch (UTC): 09 May 2021 04:56:24
Eccentricity: 0.0107157
inclination: 47.2140°
perigee height: 1514 km
apogee height: 1685 km
right ascension of ascending node: 59.6237°
argument of perigee: 50.4800°
revolutions per day: 12.18275129
mean anomaly at epoch: 310.5403°
orbit number at epoch: 70380

The dashed part of the orbit path shows where the satellite is in the earth's shadow,  

DLR